Date String (YYYY-MM-DD hh:mm:ss) UTC,Instrument flags,absolute air pressure of the measurement (hPa),sample flow rate (lpm),inlet stack bypass flow (lpm),air temperature of the measurement (°C),ambient temperature measured by the external sensor (°C),aerosol sample conditioner tube jacket temperature (°C),OPC LED temperature (°C),internal box temperature (°C),relative humidity of the measurement (%),span deviation,mass concentration of particles derived from Lorenz-Mie calculation of OPC scattering (μg/m³),mass concentration of particles derived from Lorenz-Mie calculation of OPC scattering (μg/m³),mass concentration of particles derived from Lorenz-Mie calculation of OPC scattering (μg/m³)
DateTimeUTC,F1_M11,P_M11,Q1_M11,Q2_M11,T1_M11,T2_M11,T3_M11,T4_M11,T5_M11,U1_M11,ZSPAN_M11,X0_M11,X2_M11,X1_M11
2023-11-18 10:00:00,SystemResetWarning,0830.5,5.00,000.00,023.7,022.5,000.0,032.1,025.0,15.3,0000.0,0005.55,0002.75,0002.18
2023-11-18 10:01:00,SystemResetWarning,0830.4,5.01,000.00,023.7,022.5,000.0,032.1,024.9,14.6,0000.0,0005.37,0002.70,0002.17
2023-11-18 10:02:00,SystemResetWarning,0830.7,5.01,000.00,023.7,022.5,000.0,032.1,024.9,14.6,0000.0,0004.38,0002.70,0002.16
2023-11-18 10:03:00,SystemResetWarning,0830.5,5.00,000.00,023.7,022.5,000.0,032.0,024.9,14.3,0000.0,0004.24,0002.68,0002.15
2023-11-18 10:04:00,SystemResetWarning,0830.6,4.99,000.00,023.6,022.5,000.0,032.0,025.0,14.5,0000.0,0004.23,0002.70,0002.15
2023-11-18 10:05:00,SystemResetWarning,0830.9,4.99,000.00,023.6,022.5,000.0,032.0,025.0,14.2,0000.0,0004.48,0002.73,0002.15
2023-11-18 10:06:00,SystemResetWarning,0830.6,5.00,000.00,023.6,022.5,000.0,032.0,024.9,14.7,0000.0,0004.59,0002.73,0002.12
2023-11-18 10:07:00,SystemResetWarning,0830.6,5.00,000.00,023.6,022.5,000.0,032.0,024.9,15.1,0000.0,0004.41,0002.66,0002.08
2023-11-18 10:08:00,SystemResetWarning,0830.5,5.00,000.00,023.6,022.5,000.0,032.0,024.9,15.4,0000.0,0004.56,0002.58,0002.06
2023-11-18 10:09:00,SystemResetWarning,0830.4,5.00,000.00,023.6,022.5,000.0,032.0,024.9,15.7,0000.0,0005.28,0002.50,0002.03
2023-11-18 10:10:00,SystemResetWarning,0830.4,5.01,000.00,023.6,022.5,000.0,032.0,025.0,16.0,0000.0,0005.21,0002.45,0001.98
2023-11-18 10:11:00,SystemResetWarning,0830.4,5.00,000.00,023.6,022.5,000.0,032.0,025.0,16.1,0000.0,0005.20,0002.40,0001.93
2023-11-18 10:12:00,SystemResetWarning,0830.4,5.00,000.00,023.6,022.5,000.0,032.0,024.9,16.2,0000.0,0005.24,0002.39,0001.90
2023-11-18 10:13:00,SystemResetWarning,0830.4,5.00,000.00,023.6,022.5,000.0,032.0,024.9,16.3,0000.0,0005.12,0002.36,0001.91
2023-11-18 10:14:00,SystemResetWarning,0830.4,5.00,000.00,023.6,022.5,000.0,032.0,024.9,16.3,0000.0,0005.17,0002.40,0001.91
2023-11-18 10:15:00,SystemResetWarning,0830.3,5.01,000.00,023.6,022.5,000.0,032.0,024.9,16.3,0000.0,0005.16,0002.44,0001.94
2023-11-18 10:16:00,SystemResetWarning,0830.4,5.01,000.00,023.6,022.5,000.0,032.0,024.9,16.2,0000.0,0005.03,0002.50,0002.01
2023-11-18 10:17:00,SystemResetWarning,0830.3,5.00,000.00,023.6,022.5,000.0,032.0,024.9,16.1,0000.0,0005.33,0002.60,0002.09
2023-11-18 10:18:00,SystemResetWarning,0830.3,5.00,000.00,023.6,022.5,000.0,032.0,024.9,16.1,0000.0,0006.10,0002.76,0002.21
2023-11-18 10:19:00,SystemResetWarning,0830.3,5.00,000.00,023.6,022.5,000.0,032.0,024.9,16.1,0000.0,0007.15,0002.91,0002.31
2023-11-18 10:20:00,SystemResetWarning,0830.3,5.00,000.00,023.6,022.4,000.0,032.0,024.9,16.1,0000.0,0006.53,0003.07,0002.42
2023-11-18 10:21:00,SystemResetWarning,0830.3,4.99,000.00,023.6,022.4,000.0,032.0,024.9,16.1,0000.0,0007.45,0003.16,0002.51
2023-11-18 10:22:00,SystemResetWarning,0830.3,5.00,000.00,023.5,022.4,000.0,032.0,024.9,16.2,0000.0,0007.73,0003.20,0002.58
2023-11-18 10:23:00,SystemResetWarning,0830.3,5.00,000.00,023.5,022.4,000.0,032.0,024.9,16.3,0000.0,0007.80,0003.25,0002.66
2023-11-18 10:24:00,SystemResetWarning,0830.3,5.00,000.00,023.5,022.4,000.0,031.9,024.9,16.3,0000.0,0008.20,0003.30,0002.73
2023-11-18 10:25:00,SystemResetWarning,0830.2,5.00,000.00,023.5,022.4,000.0,031.9,024.9,16.4,0000.0,0008.35,0003.33,0002.77
2023-11-18 10:26:00,SystemResetWarning,0830.2,5.00,000.00,023.5,022.4,000.0,031.9,024.9,16.6,0000.0,0008.50,0003.34,0002.79
2023-11-18 10:27:00,SystemResetWarning,0830.3,5.00,000.00,023.5,022.4,000.0,031.9,024.8,16.4,0000.0,0008.90,0003.34,0002.77
2023-11-18 10:28:00,SystemResetWarning,0830.2,5.00,000.00,023.5,022.4,000.0,031.9,024.8,16.3,0000.0,0008.88,0003.33,0002.77
2023-11-18 10:29:00,SystemResetWarning,0830.2,5.00,000.00,023.5,022.4,000.0,031.9,024.9,16.3,0000.0,0008.82,0003.32,0002.75
2023-11-18 10:30:00,SystemResetWarning,0830.2,5.00,000.00,023.5,022.4,000.0,031.9,024.8,16.4,0000.0,0008.25,0003.35,0002.77
2023-11-18 10:31:00,SystemResetWarning,0830.3,5.00,000.00,023.5,022.4,000.0,031.9,024.8,16.5,0000.0,0008.32,0003.34,0002.80
2023-11-18 10:32:00,SystemResetWarning,0830.2,5.00,000.00,023.5,022.4,000.0,031.9,024.8,16.5,0000.0,0009.39,0003.39,0002.85
2023-11-18 10:33:00,SystemResetWarning,0830.3,5.00,000.00,023.5,022.4,000.0,031.9,024.8,16.4,0000.0,0009.13,0003.47,0002.90
2023-11-18 10:34:00,SystemResetWarning,0830.3,5.00,000.00,023.5,022.4,000.0,031.9,024.8,16.4,0000.0,0009.23,0003.50,0002.91
2023-11-18 10:35:00,SystemResetWarning,0830.2,5.00,000.00,023.5,022.4,000.0,031.9,024.8,16.4,0000.0,0009.08,0003.51,0002.93
2023-11-18 10:36:00,SystemResetWarning,0830.2,5.00,000.00,023.5,022.3,000.0,031.9,024.8,16.4,0000.0,0008.92,0003.55,0002.98
2023-11-18 10:37:00,SystemResetWarning,0830.1,5.00,000.00,023.5,022.4,000.0,031.9,024.8,16.5,0000.0,0008.97,0003.57,0003.04
2023-11-18 10:38:00,SystemResetWarning,0830.1,5.00,000.00,023.5,022.3,000.0,031.9,024.8,16.6,0000.0,0008.42,0003.58,0003.10
2023-11-18 10:39:00,SystemResetWarning,0830.1,5.00,000.00,023.5,022.3,000.0,031.9,024.8,16.6,0000.0,0008.28,0003.59,0003.12
2023-11-18 10:40:00,SystemResetWarning,0830.1,5.00,000.00,023.5,022.3,000.0,031.9,024.8,16.6,0000.0,0008.35,0003.60,0003.12
2023-11-18 10:41:00,SystemResetWarning,0830.1,5.00,000.00,023.4,022.3,000.0,031.9,024.8,16.5,0000.0,0008.56,0003.57,0003.12
2023-11-18 10:42:00,SystemResetWarning,0830.1,5.00,000.00,023.4,022.3,000.0,031.8,024.8,16.5,0000.0,0008.76,0003.59,0003.12
2023-11-18 10:43:00,SystemResetWarning,0830.1,5.00,000.00,023.4,022.3,000.0,031.8,024.8,16.4,0000.0,0007.50,0003.60,0003.12
2023-11-18 10:44:00,SystemResetWarning,0830.1,5.00,000.00,023.4,022.3,000.0,031.8,024.8,16.5,0000.0,0007.14,0003.57,0003.12
2023-11-18 10:45:00,SystemResetWarning,0830.1,5.00,000.00,023.4,022.3,000.0,031.8,024.8,16.4,0000.0,0007.37,0003.58,0003.13
2023-11-18 10:46:00,SystemResetWarning,0830.1,5.00,000.00,023.4,022.3,000.0,031.8,024.8,16.3,0000.0,0007.57,0003.60,0003.14
2023-11-18 10:47:00,SystemResetWarning,0830.1,5.00,000.00,023.4,022.2,000.0,031.8,024.7,16.3,0000.0,0007.57,0003.61,0003.15
2023-11-18 10:48:00,SystemResetWarning,0830.1,5.00,000.00,023.4,022.2,000.0,031.8,024.7,16.0,0000.0,0007.67,0003.61,0003.14
2023-11-18 10:49:00,SystemResetWarning,0830.1,5.00,000.00,023.4,022.2,000.0,031.8,024.7,15.8,0000.0,0007.99,0003.65,0003.14
2023-11-18 10:50:00,SystemResetWarning,0830.1,5.00,000.00,023.4,022.2,000.0,031.8,024.7,15.6,0000.0,0008.18,0003.66,0003.14
2023-11-18 10:51:00,SystemResetWarning,0830.1,5.01,000.00,023.4,022.2,000.0,031.8,024.7,15.4,0000.0,0008.15,0003.66,0003.15
2023-11-18 10:52:00,SystemResetWarning,0830.1,5.01,000.00,023.3,022.2,000.0,031.8,024.7,15.3,0000.0,0007.85,0003.66,0003.15
2023-11-18 10:53:00,SystemResetWarning,0830.1,5.00,000.00,023.3,022.2,000.0,031.8,024.7,15.6,0000.0,0007.61,0003.63,0003.14
2023-11-18 10:54:00,SystemResetWarning,0830.1,4.99,000.00,023.3,022.2,000.0,031.8,024.6,15.6,0000.0,0008.28,0003.59,0003.12
2023-11-18 10:55:00,SystemResetWarning,0830.1,4.99,000.00,023.3,022.2,000.0,031.8,024.7,15.7,0000.0,0008.41,0003.56,0003.10
2023-11-18 10:56:00,SystemResetWarning,0830.1,5.00,000.00,023.3,022.2,000.0,031.8,024.7,16.0,0000.0,0008.13,0003.51,0003.05
2023-11-18 10:57:00,SystemResetWarning,0830.1,5.00,000.00,023.3,022.2,000.0,031.8,024.6,16.2,0000.0,0007.92,0003.49,0003.00
2023-11-18 10:58:00,SystemResetWarning,0830.1,5.00,000.00,023.3,022.2,000.0,031.7,024.6,16.3,0000.0,0007.90,0003.45,0002.95
2023-11-18 10:59:00,SystemResetWarning,0830.1,5.00,000.00,023.3,022.2,000.0,031.7,024.7,16.4,0000.0,0007.88,0003.47,0002.92
